FW8870 Weather Reports


Display with metric or nautical units.
time (UTC)temp
F
wind
direction
speed
MPH
gust
MPH
rain 1hr
in
rain 24hr
in
rain mn
in
humidity
%
barometer
mb
20260507081756 53 345 0.0 0.0 0.00 0.00 0.00 88 1023.0
20260507081252 53 84 0.0 0.0 0.00 0.00 0.00 89 1022.8
20260507080749 54 137 0.0 0.0 0.00 0.00 0.00 89 1022.9
20260507080245 54 335 0.0 0.0 0.00 0.00 0.00 88 1022.8
20260507075740 54 341 0.0 0.0 0.00 0.00 0.00 88 1022.9
20260507075237 54 26 0.0 0.0 0.00 0.00 0.00 88 1022.9
20260507074733 54 12 0.0 0.0 0.00 0.00 0.00 88 1022.8
20260507074232 54 175 0.0 0.0 0.00 0.00 0.00 88 1022.8
20260507073728 54 37 0.0 0.0 0.00 0.00 0.00 88 1022.5
20260507073224 54 104 0.0 0.0 0.00 0.00 0.00 88 1022.9
20260507072722 54 25 0.0 0.0 0.00 0.00 0.00 88 1022.6
20260507072219 54 291 0.0 0.0 0.00 0.00 0.00 88 1022.6
20260507071717 54 80 1.0 2.0 0.00 0.00 0.00 88 1022.6
20260507071213 54 10 0.0 0.0 0.00 0.00 0.00 88 1022.5
20260507070710 54 329 0.0 0.0 0.00 0.00 0.00 88 1022.8
20260507070207 54 342 0.0 0.0 0.00 0.00 0.00 88 1022.6
20260507065703 54 358 0.0 0.0 0.00 0.00 0.00 88 1022.5
20260507065200 54 347 0.0 1.0 0.00 0.00 0.00 88 1022.5
20260507064658 54 314 0.0 0.0 0.00 0.00 0.00 88 1022.6
20260507064156 55 77 0.0 0.0 0.00 0.00 0.00 87 1022.5
20260507063654 55 44 0.0 0.0 0.00 0.00 0.00 88 1022.7
20260507063150 55 11 0.0 0.0 0.00 0.00 0.00 87 1022.5
20260507062647 55 111 0.0 0.0 0.00 0.00 0.00 86 1022.3
20260507062145 55 66 0.0 1.0 0.00 0.00 0.00 86 1022.3
20260507061643 55 106 0.0 0.0 0.00 0.00 0.00 86 1022.6
20260507061140 55 179 0.0 0.0 0.00 0.00 0.00 86 1022.3
20260507060638 55 153 1.0 2.0 0.00 0.00 0.00 86 1022.1
20260507060134 55 137 1.0 2.0 0.00 0.00 0.00 86 1022.2
20260507055629 55 30 0.0 1.0 0.00 0.00 0.00 86 1022.3
20260507055126 55 138 0.0 0.0 0.00 0.00 0.00 87 1022.3
20260507054622 55 349 0.0 0.0 0.00 0.00 0.00 87 1021.9
20260507054119 55 14 1.0 3.0 0.00 0.00 0.00 86 1022.2
20260507053617 55 27 0.0 0.0 0.00 0.00 0.00 87 1022.1
20260507053115 55 30 0.0 1.0 0.00 0.00 0.00 87 1021.9
20260507052613 55 17 0.0 0.0 0.00 0.00 0.00 87 1022.2
20260507052109 55 78 0.0 0.0 0.00 0.00 0.00 87 1022.1
20260507051607 55 78 0.0 0.0 0.00 0.00 0.00 87 1022.1
20260507051103 55 200 0.0 0.0 0.00 0.00 0.00 87 1022.3
20260507050600 55 170 0.0 0.0 0.00 0.00 0.00 88 1022.0
20260507050057 55 325 0.0 0.0 0.00 0.00 0.00 87 1022.1
20260507045553 55 337 0.0 0.0 0.00 0.00 0.00 88 1022.2
20260507045051 55 163 1.0 5.0 0.00 0.00 0.00 88 1022.2
20260507044547 55 180 0.0 0.0 0.00 0.00 0.00 89 1022.2
20260507044044 55 200 0.0 0.0 0.00 0.00 0.00 89 1022.1
20260507043540 55 199 1.0 2.0 0.00 0.00 0.00 88 1022.2
20260507043038 55 336 0.0 0.0 0.00 0.00 0.00 87 1022.1
20260507042533 55 70 0.0 0.0 0.00 0.00 0.00 88 1022.1
20260507042029 55 28 0.0 0.0 0.00 0.00 0.00 87 1022.0
20260507041526 55 341 0.0 0.0 0.00 0.00 0.00 87 1022.0
20260507041023 55 37 0.0 0.0 0.00 0.00 0.00 87 1022.1
20260507040519 55 246 0.0 0.0 0.00 0.00 0.00 87 1022.0
20260507040015 55 158 0.0 0.0 0.00 0.00 0.00 87 1022.0
20260507035512 55 34 0.0 0.0 0.00 0.00 0.00 87 1022.0
20260507035008 55 342 0.0 0.0 0.00 0.00 0.00 87 1021.9
20260507034505 55 303 0.0 0.0 0.00 0.00 0.00 87 1021.8
20260507034003 55 1 0.0 0.0 0.00 0.00 0.00 87 1021.8
20260507033501 56 81 0.0 0.0 0.00 0.00 0.00 87 1021.7
20260507032958 56 304 0.0 0.0 0.00 0.00 0.00 86 1021.6
20260507032454 56 335 0.0 0.0 0.00 0.00 0.00 86 1022.0
20260507031950 56 132 0.0 0.0 0.00 0.00 0.00 86 1021.8
20260507031447 56 107 1.0 3.0 0.00 0.00 0.00 86 1021.9
20260507030944 56 342 0.0 0.0 0.00 0.00 0.00 87 1021.7
20260507030441 56 324 0.0 0.0 0.00 0.00 0.00 86 1021.7
20260507025938 56 188 0.0 0.0 0.00 0.00 0.00 86 1022.0
20260507025435 56 80 0.0 0.0 0.00 0.00 0.00 86 1021.8
20260507024933 56 347 0.0 0.0 0.00 0.00 0.00 86 1021.8
20260507024431 56 217 0.0 0.0 0.00 0.00 0.00 87 1021.7
20260507023926 56 162 0.0 0.0 0.00 0.00 0.00 87 1021.6
20260507023423 56 187 0.0 0.0 0.00 0.00 0.00 86 1021.7
20260507022920 56 315 0.0 0.0 0.00 0.00 0.00 86 1021.6
20260507022417 56 316 0.0 0.0 0.00 0.00 0.00 85 1021.7
20260507021913 56 355 0.0 0.0 0.00 0.00 0.00 86 1021.9
20260507021408 56 153 0.0 0.0 0.00 0.00 0.00 86 1021.7
20260507020906 56 233 0.0 0.0 0.00 0.00 0.00 86 1021.8
20260507020403 56 292 0.0 0.0 0.00 0.00 0.00 86 1021.8
20260507015859 56 137 0.0 0.0 0.00 0.00 0.00 86 1021.8
20260507015358 57 356 0.0 0.0 0.00 0.00 0.00 85 1021.9
20260507014854 57 184 0.0 0.0 0.00 0.00 0.00 85 1021.7
20260507014350 57 343 0.0 0.0 0.00 0.00 0.00 85 1021.9
20260507013847 57 315 0.0 0.0 0.00 0.00 0.00 85 1021.8
20260507013344 57 301 0.0 0.0 0.00 0.00 0.00 85 1021.5
20260507012842 57 106 0.0 0.0 0.00 0.00 0.00 85 1021.9
20260507012337 57 350 0.0 0.0 0.00 0.00 0.00 85 1021.7
20260507011834 57 17 0.0 0.0 0.00 0.00 0.00 84 1021.7
20260507011332 57 303 0.0 0.0 0.00 0.00 0.00 84 1021.4
20260507010826 57 338 0.0 0.0 0.00 0.00 0.00 84 1021.6
20260507010321 57 99 0.0 1.0 0.00 0.00 0.00 84 1021.5
20260507005819 58 260 0.0 0.0 0.00 0.00 0.00 83 1021.6
20260507005316 58 354 0.0 0.0 0.00 0.00 0.00 83 1021.7
20260507004813 58 332 0.0 0.0 0.00 0.00 0.00 83 1021.6
20260507004310 58 173 1.0 3.0 0.00 0.00 0.00 83 1021.5
20260507003807 58 172 1.0 2.0 0.00 0.00 0.00 83 1021.7
20260507003302 59 312 0.0 0.0 0.00 0.00 0.00 82 1021.8
20260507002757 59 125 0.0 0.0 0.00 0.00 0.00 82 1021.7
20260507002254 59 328 0.0 0.0 0.00 0.00 0.00 82 1021.8
20260507001751 59 66 0.0 0.0 0.00 0.00 0.00 82 1021.7
20260507001248 59 217 0.0 0.0 0.00 0.00 0.00 82 1021.5
20260507000744 59 101 0.0 0.0 0.00 0.00 0.00 83 1021.7
20260507000240 59 197 1.0 2.0 0.00 0.00 0.00 83 1021.5
20260506235737 59 185 0.0 0.0 0.00 0.00 0.00 84 1021.4
20260506235232 59 7 0.0 0.0 0.00 0.00 0.00 83 1021.6
20260506234730 59 144 1.0 2.0 0.00 0.00 0.00 82 1021.2
20260506234227 59 192 0.0 0.0 0.00 0.00 0.00 83 1021.4
20260506233724 59 188 0.0 0.0 0.00 0.00 0.00 83 1021.6
20260506233221 59 231 0.0 0.0 0.00 0.00 0.00 84 1021.4
20260506232717 59 86 0.0 0.0 0.00 0.00 0.00 84 1021.6
20260506232212 58 282 0.0 0.0 0.00 0.00 0.00 86 1021.5
20260506231710 58 204 0.0 0.0 0.00 0.00 0.00 86 1021.7
20260506231208 58 233 0.0 0.0 0.00 0.00 0.00 87 1021.5
20260506230704 58 319 0.0 0.0 0.00 0.00 0.00 88 1021.7
20260506230202 58 161 0.0 0.0 0.00 0.00 0.00 86 1021.6
20260506225658 58 216 0.0 0.0 0.00 0.00 0.00 87 1021.8
20260506225155 58 192 0.0 0.0 0.00 0.00 0.00 87 1022.1
20260506224651 58 294 0.0 0.0 0.00 0.00 0.00 89 1021.8
20260506224148 57 346 0.0 0.0 0.00 0.00 0.00 88 1021.6
20260506223645 57 65 0.0 0.0 0.00 0.00 0.00 89 1021.9
20260506223140 57 313 0.0 0.0 0.00 0.00 0.00 89 1021.9
20260506222637 57 316 0.0 0.0 0.00 0.00 0.00 89 1021.8
20260506222133 57 11 0.0 0.0 0.00 0.00 0.00 88 1021.7
20260506221632 57 327 0.0 0.0 0.00 0.00 0.00 88 1021.8
20260506221130 56 318 0.0 0.0 0.00 0.00 0.00 89 1021.8
20260506220626 56 334 0.0 0.0 0.00 0.00 0.00 89 1021.9
20260506220121 56 289 0.0 0.0 0.00 0.00 0.00 88 1021.8
20260506215618 56 308 0.0 0.0 0.00 0.00 0.00 89 1022.0
20260506215113 56 337 0.0 0.0 0.00 0.00 0.00 89 1021.8
20260506214610 56 339 0.0 0.0 0.00 0.00 0.00 90 1022.0
20260506214108 56 333 0.0 0.0 0.00 0.00 0.00 90 1021.9
20260506213606 56 327 0.0 0.0 0.00 0.00 0.00 90 1021.8
20260506213103 56 330 0.0 0.0 0.00 0.00 0.00 90 1021.9
20260506212600 56 331 0.0 0.0 0.00 0.00 0.00 91 1021.9
20260506212054 56 305 0.0 0.0 0.00 0.00 0.00 92 1021.9
20260506211551 56 338 0.0 0.0 0.00 0.00 0.00 92 1021.9
20260506211048 56 319 0.0 0.0 0.00 0.00 0.00 92 1022.1
20260506210544 56 345 0.0 0.0 0.00 0.00 0.00 92 1022.0
20260506210041 55 321 0.0 0.0 0.00 0.00 0.00 91 1022.0
20260506205538 55 342 0.0 0.0 0.00 0.00 0.00 91 1021.9
20260506205033 56 328 0.0 0.0 0.00 0.00 0.00 92 1022.0
20260506204531 56 333 0.0 0.0 0.00 0.00 0.00 91 1022.1
20260506204028 56 355 0.0 0.0 0.00 0.00 0.00 91 1022.0
20260506203526 56 351 0.0 0.0 0.00 0.00 0.00 91 1022.1
20260506203022 56 332 0.0 0.0 0.00 0.00 0.00 91 1021.9
20260506202520 56 317 0.0 0.0 0.00 0.00 0.00 91 1021.8
20260506202016 56 341 0.0 0.0 0.00 0.00 0.00 91 1021.9
20260506201514 56 321 0.0 0.0 0.00 0.00 0.00 91 1021.7
20260506201010 56 317 0.0 0.0 0.00 0.00 0.00 91 1021.8
20260506200507 56 334 0.0 0.0 0.00 0.00 0.00 91 1021.9
20260506200004 56 323 0.0 0.0 0.00 0.00 0.00 90 1022.0
20260506195501 57 351 0.0 0.0 0.00 0.00 0.00 91 1021.7
20260506194956 57 309 0.0 0.0 0.00 0.00 0.00 91 1021.7
20260506194454 57 307 0.0 0.0 0.00 0.00 0.00 90 1021.5
20260506193950 57 327 0.0 0.0 0.00 0.00 0.00 91 1021.5
20260506193448 57 309 0.0 0.0 0.00 0.00 0.00 91 1021.5
20260506192944 57 338 0.0 0.0 0.00 0.00 0.00 90 1021.6
20260506192442 57 317 0.0 0.0 0.00 0.00 0.00 90 1021.5
20260506191938 57 311 0.0 0.0 0.00 0.00 0.00 90 1021.3
20260506191435 57 320 0.0 0.0 0.00 0.00 0.00 90 1021.4
20260506190931 57 299 0.0 0.0 0.00 0.00 0.00 91 1021.5
20260506190428 57 331 0.0 0.0 0.00 0.00 0.00 92 1021.3
20260506185925 57 317 0.0 0.0 0.00 0.00 0.00 92 1021.4
20260506185422 57 350 0.0 0.0 0.00 0.00 0.00 92 1021.5
20260506184919 57 333 0.0 0.0 0.00 0.00 0.00 92 1021.4
20260506184416 57 326 0.0 0.0 0.00 0.00 0.00 91 1021.7
20260506183913 57 169 0.0 0.0 0.00 0.00 0.00 91 1021.6
20260506183408 57 270 0.0 0.0 0.00 0.00 0.00 92 1021.4
20260506182906 57 282 0.0 0.0 0.00 0.00 0.00 91 1021.2
20260506182403 57 322 0.0 0.0 0.00 0.00 0.00 92 1021.2
20260506181900 57 117 0.0 0.0 0.00 0.00 0.00 92 1021.0
20260506181358 57 33 0.0 0.0 0.00 0.00 0.00 91 1021.3
20260506180855 57 20 0.0 0.0 0.00 0.00 0.00 90 1021.5
20260506180351 57 309 0.0 0.0 0.00 0.00 0.00 92 1021.3
20260506175848 57 298 0.0 0.0 0.00 0.00 0.00 91 1021.2
20260506175344 57 348 0.0 0.0 0.00 0.00 0.00 91 1021.1
20260506174841 57 320 0.0 0.0 0.00 0.00 0.00 91 1021.2
20260506174339 57 13 0.0 0.0 0.00 0.00 0.00 91 1021.1
20260506173836 57 326 0.0 0.0 0.00 0.00 0.00 91 1021.2
20260506173333 57 302 0.0 0.0 0.00 0.00 0.00 91 1021.5
20260506172830 57 40 0.0 0.0 0.00 0.00 0.00 91 1021.2
20260506172327 57 336 0.0 0.0 0.00 0.00 0.00 91 1021.2
20260506171824 57 344 0.0 0.0 0.00 0.00 0.00 92 1021.1
20260506171321 56 339 0.0 0.0 0.00 0.00 0.00 92 1020.9
20260506170819 56 330 0.0 0.0 0.00 0.00 0.00 92 1021.2
20260506170314 56 325 0.0 0.0 0.00 0.00 0.00 92 1021.0
20260506165814 56 327 0.0 0.0 0.00 0.00 0.00 93 1021.2
20260506165311 56 355 0.0 0.0 0.00 0.00 0.00 93 1021.2
20260506164807 56 337 0.0 0.0 0.00 0.00 0.00 92 1021.1
20260506164304 56 314 0.0 0.0 0.00 0.00 0.00 92 1021.1
20260506163801 55 292 0.0 0.0 0.00 0.00 0.00 93 1021.0
20260506163256 56 25 0.0 0.0 0.00 0.00 0.00 93 1021.2
20260506162752 56 319 0.0 0.0 0.00 0.00 0.00 94 1021.3
20260506162250 55 337 0.0 0.0 0.00 0.00 0.00 93 1021.3
20260506161747 56 342 0.0 0.0 0.00 0.00 0.00 93 1021.1
20260506161244 56 88 0.0 0.0 0.00 0.00 0.00 92 1021.2
20260506160742 57 51 0.0 0.0 0.00 0.00 0.00 93 1021.4
20260506160238 56 333 0.0 0.0 0.00 0.00 0.00 92 1021.4
20260506155737 57 344 0.0 0.0 0.00 0.00 0.00 93 1021.4
20260506155233 56 310 0.0 0.0 0.00 0.00 0.00 92 1021.3
20260506153347 56 315 0.0 0.0 0.00 0.00 0.00 91 1021.1
20260506152843 56 265 0.0 0.0 0.00 0.00 0.00 91 1020.8
20260506152341 56 343 0.0 0.0 0.00 0.00 0.00 91 1020.9
20260506151839 56 352 0.0 0.0 0.00 0.00 0.00 91 1020.7
20260506151335 56 236 0.0 0.0 0.00 0.00 0.00 91 1020.8
20260506150833 55 357 0.0 0.0 0.00 0.00 0.00 91 1020.7
20260506150329 56 358 0.0 0.0 0.00 0.00 0.00 91 1020.5
20260506145826 55 326 0.0 0.0 0.00 0.00 0.00 92 1020.8
20260506145322 55 330 0.0 0.0 0.00 0.00 0.00 92 1020.5
20260506144820 55 329 0.0 0.0 0.00 0.00 0.00 92 1020.7
20260506144316 55 349 0.0 0.0 0.00 0.00 0.00 93 1020.7
20260506143815 55 345 0.0 0.0 0.00 0.00 0.00 93 1020.7
20260506143312 55 322 0.0 0.0 0.00 0.00 0.00 93 1020.6
20260506142810 54 327 0.0 0.0 0.00 0.00 0.00 93 1020.8
20260506142307 54 359 0.0 0.0 0.00 0.00 0.00 93 1020.5
20260506141806 54 110 0.0 0.0 0.00 0.00 0.00 93 1020.7
20260506141303 54 342 0.0 0.0 0.00 0.00 0.00 94 1020.7
20260506140801 54 296 0.0 0.0 0.00 0.00 0.00 94 1020.5
20260506140258 54 139 0.0 2.0 0.00 0.00 0.00 94 1020.2
20260506135755 54 1 0.0 0.0 0.00 0.00 0.00 93 1020.5
20260506135251 54 324 0.0 0.0 0.00 0.00 0.00 93 1020.2
20260506134748 53 331 2.0 6.0 0.00 0.00 0.00 94 1020.1
20260506134244 53 296 0.0 0.0 0.00 0.00 0.00 94 1020.1
20260506133741 53 291 0.0 0.0 0.00 0.00 0.00 94 1020.2
20260506133238 53 320 0.0 0.0 0.00 0.00 0.00 94 1020.2
20260506132735 53 113 0.0 0.0 0.00 0.00 0.00 95 1020.3
20260506132232 53 116 0.0 0.0 0.00 0.00 0.00 95 1020.2
20260506131730 52 62 0.0 0.0 0.00 0.00 0.00 97 1020.3
20260506131226 52 331 0.0 0.0 0.00 0.00 0.00 97 1020.3
20260506130723 52 343 0.0 0.0 0.00 0.00 0.00 97 1020.3
20260506130220 52 290 0.0 0.0 0.00 0.00 0.00 96 1020.4
20260506125718 52 331 0.0 0.0 0.00 0.00 0.00 96 1020.4
20260506125215 52 331 0.0 0.0 0.00 0.00 0.00 97 1020.2
20260506124713 52 359 0.0 0.0 0.00 0.00 0.00 96 1020.2
20260506124211 52 81 0.0 0.0 0.00 0.00 0.00 96 1020.1
20260506123708 52 346 0.0 0.0 0.00 0.00 0.00 96 1020.3
20260506123207 52 17 0.0 0.0 0.00 0.00 0.00 96 1020.2
20260506122703 52 106 0.0 0.0 0.00 0.00 0.00 96 1020.2
20260506122201 52 355 0.0 0.0 0.00 0.00 0.00 95 1019.9
20260506121658 52 282 0.0 0.0 0.00 0.00 0.00 95 1019.7
20260506121154 52 102 0.0 0.0 0.00 0.00 0.00 95 1019.8
20260506120653 52 347 0.0 0.0 0.00 0.00 0.00 95 1019.8
20260506120150 52 126 0.0 0.0 0.00 0.00 0.00 95 1019.8
20260506115648 52 144 0.0 0.0 0.00 0.00 0.00 95 1019.5
20260506115146 52 186 1.0 2.0 0.00 0.00 0.00 95 1019.6
20260506114643 52 309 0.0 0.0 0.00 0.00 0.00 95 1019.9
20260506114141 52 159 0.0 0.0 0.00 0.00 0.00 95 1019.8
20260506113639 52 130 0.0 0.0 0.00 0.00 0.00 95 1019.6
20260506113136 52 335 0.0 0.0 0.00 0.00 0.00 95 1019.6
20260506112632 52 138 0.0 0.0 0.00 0.00 0.00 95 1019.6
20260506112130 53 89 0.0 0.0 0.00 0.00 0.00 95 1019.7
20260506111627 52 336 0.0 0.0 0.00 0.00 0.00 95 1019.6
20260506111125 53 84 0.0 0.0 0.00 0.00 0.00 94 1019.6
20260506110622 53 205 0.0 0.0 0.00 0.00 0.00 93 1019.4
20260506110119 53 40 0.0 0.0 0.00 0.00 0.00 94 1019.3
20260506105616 53 111 0.0 0.0 0.00 0.00 0.00 94 1019.0
20260506105113 53 46 0.0 0.0 0.00 0.00 0.00 94 1019.2
20260506104611 53 117 0.0 0.0 0.00 0.00 0.00 94 1019.1
20260506104108 53 188 0.0 0.0 0.00 0.00 0.00 94 1018.9
20260506103605 53 143 0.0 0.0 0.00 0.00 0.00 93 1018.8
20260506103102 53 169 1.0 2.0 0.00 0.00 0.00 93 1018.7
20260506102600 53 119 1.0 2.0 0.00 0.00 0.00 93 1018.9
20260506102057 53 14 2.0 5.0 0.00 0.00 0.00 93 1018.7
20260506101554 53 171 0.0 0.0 0.00 0.00 0.00 92 1018.7
20260506101051 53 186 0.0 2.0 0.00 0.00 0.00 92 1018.8
20260506100549 54 56 0.0 0.0 0.00 0.00 0.00 92 1018.6
20260506100047 54 325 0.0 0.0 0.00 0.00 0.00 92 1018.6
20260506095546 54 288 0.0 0.0 0.00 0.00 0.00 92 1018.6
20260506095042 54 85 1.0 3.0 0.00 0.00 0.00 92 1018.3
20260506094539 54 159 1.0 5.0 0.00 0.00 0.00 92 1018.6
20260506094037 54 329 0.0 0.0 0.00 0.00 0.00 91 1018.5
20260506093535 54 82 0.0 0.0 0.00 0.00 0.00 91 1018.6
20260506093032 55 65 0.0 0.0 0.00 0.00 0.00 91 1018.5
20260506092530 54 8 0.0 0.0 0.00 0.00 0.00 91 1018.4
20260506092027 54 352 0.0 0.0 0.00 0.00 0.00 92 1018.4
20260506091525 54 111 0.0 0.0 0.00 0.00 0.00 92 1018.1
20260506091022 55 146 0.0 0.0 0.00 0.00 0.00 91 1018.3
20260506090520 55 23 0.0 0.0 0.00 0.00 0.00 91 1018.2
20260506090016 55 21 0.0 0.0 0.00 0.00 0.00 91 1018.5
20260506085513 55 350 0.0 0.0 0.00 0.00 0.00 91 1018.2
20260506085009 55 45 0.0 0.0 0.00 0.00 0.00 91 1018.1
20260506084506 55 117 0.0 0.0 0.00 0.00 0.00 91 1018.1
20260506084002 55 10 0.0 1.0 0.00 0.00 0.00 91 1018.2
20260506083500 55 164 0.0 0.0 0.00 0.00 0.00 91 1018.3
20260506082957 55 7 0.0 0.0 0.00 0.00 0.00 90 1018.0
20260506082454 56 123 0.0 0.0 0.00 0.00 0.00 90 1018.0